| time (UTC) | temp F | wind direction | speed MPH | gust MPH | rain 1hr in | rain 24hr in | rain mn in | humidity % | barometer mb |
| 20260505101516 | 70 | 203 | 4.0 | 7.0 | 0.00 | 0.00 | 0.00 | 82 | 1002.2 |
| 20260505100515 | 70 | 203 | 5.0 | 10.0 | 0.00 | 0.00 | 0.00 | 82 | 1002.2 |
| 20260505095516 | 70 | 180 | 5.0 | 10.0 | 0.00 | 0.00 | 0.00 | 82 | 1002.2 |
| 20260505094516 | 70 | 180 | 4.0 | 9.0 | 0.00 | 0.00 | 0.00 | 82 | 1002.2 |
| 20260505093515 | 70 | 180 | 4.0 | 7.0 | 0.00 | 0.00 | 0.00 | 81 | 1002.1 |
| 20260505092515 | 70 | 180 | 5.0 | 8.0 | 0.00 | 0.00 | 0.00 | 81 | 1002.1 |
| 20260505091515 | 70 | 180 | 5.0 | 8.0 | 0.00 | 0.00 | 0.00 | 81 | 1002.1 |
| 20260505090516 | 71 | 180 | 5.0 | 9.0 | 0.00 | 0.00 | 0.00 | 80 | 1002.2 |
| 20260505085516 | 71 | 180 | 4.0 | 9.0 | 0.00 | 0.00 | 0.00 | 80 | 1002.3 |
| 20260505084515 | 71 | 180 | 4.0 | 8.0 | 0.00 | 0.00 | 0.00 | 79 | 1002.4 |
| 20260505083515 | 72 | 180 | 4.0 | 8.0 | 0.00 | 0.00 | 0.00 | 78 | 1002.4 |
| 20260505082515 | 72 | 180 | 5.0 | 10.0 | 0.00 | 0.00 | 0.00 | 77 | 1002.4 |
| 20260505081515 | 73 | 180 | 7.0 | 12.0 | 0.00 | 0.00 | 0.00 | 77 | 1002.3 |
| 20260505080535 | 73 | 180 | 6.0 | 11.0 | 0.00 | 0.00 | 0.00 | 77 | 1002.5 |
| 20260505075515 | 73 | 180 | 7.0 | 11.0 | 0.00 | 0.00 | 0.00 | 76 | 1002.6 |
| 20260505074515 | 73 | 180 | 6.0 | 10.0 | 0.00 | 0.00 | 0.00 | 77 | 1002.5 |
| 20260505073517 | 73 | 180 | 6.0 | 12.0 | 0.00 | 0.00 | 0.00 | 76 | 1002.8 |
| 20260505072517 | 73 | 180 | 5.0 | 10.0 | 0.00 | 0.00 | 0.00 | 76 | 1003.0 |
| 20260505071517 | 73 | 180 | 6.0 | 12.0 | 0.00 | 0.00 | 0.00 | 76 | 1003.4 |
| 20260505070537 | 73 | 180 | 6.0 | 9.0 | 0.00 | 0.00 | 0.00 | 76 | 1003.7 |
| 20260505065517 | 73 | 180 | 6.0 | 13.0 | 0.00 | 0.00 | 0.00 | 76 | 1003.6 |
| 20260505064517 | 73 | 180 | 5.0 | 9.0 | 0.00 | 0.00 | 0.00 | 76 | 1003.7 |
| 20260505063517 | 73 | 180 | 6.0 | 12.0 | 0.00 | 0.00 | 0.00 | 76 | 1003.8 |
| 20260505062517 | 73 | 180 | 5.0 | 9.0 | 0.00 | 0.00 | 0.00 | 76 | 1003.9 |
| 20260505061517 | 73 | 180 | 7.0 | 13.0 | 0.00 | 0.00 | 0.00 | 75 | 1003.9 |
| 20260505060517 | 73 | 180 | 7.0 | 14.0 | 0.00 | 0.00 | 0.00 | 75 | 1003.8 |
| 20260505055537 | 74 | 180 | 8.0 | 16.0 | 0.00 | 0.00 | 0.00 | 75 | 1004.0 |
| 20260505054517 | 74 | 180 | 7.0 | 10.0 | 0.00 | 0.00 | 0.00 | 75 | 1004.0 |
| 20260505053517 | 74 | 180 | 8.0 | 14.0 | 0.00 | 0.00 | 0.00 | 75 | 1004.0 |
| 20260505052517 | 74 | 180 | 8.0 | 12.0 | 0.00 | 0.00 | 0.00 | 75 | 1004.0 |
| 20260505051517 | 74 | 180 | 7.0 | 17.0 | 0.00 | 0.00 | 0.00 | 75 | 1003.9 |
| 20260505050516 | 74 | 180 | 7.0 | 11.0 | 0.00 | 0.00 | 0.00 | 75 | 1003.9 |
| 20260505041515 | 73 | 180 | 6.0 | 14.0 | 0.00 | 0.00 | 0.00 | 76 | 1004.0 |
| 20260505040515 | 73 | 180 | 6.0 | 10.0 | 0.00 | 0.00 | 0.00 | 77 | 1004.1 |
| 20260505035517 | 73 | 158 | 5.0 | 10.0 | 0.00 | 0.00 | 0.00 | 77 | 1004.1 |
| 20260505034517 | 73 | 180 | 5.0 | 13.0 | 0.00 | 0.00 | 0.00 | 77 | 1004.1 |
| 20260505033515 | 73 | 180 | 6.0 | 10.0 | 0.00 | 0.00 | 0.00 | 77 | 1004.0 |
| 20260505032537 | 73 | 158 | 6.0 | 11.0 | 0.00 | 0.00 | 0.00 | 76 | 1004.0 |
| 20260505031517 | 73 | 180 | 5.0 | 8.0 | 0.00 | 0.00 | 0.00 | 76 | 1003.8 |
| 20260505030537 | 73 | 158 | 5.0 | 9.0 | 0.00 | 0.00 | 0.00 | 76 | 1003.9 |
| 20260505025517 | 73 | 158 | 4.0 | 9.0 | 0.00 | 0.00 | 0.00 | 76 | 1003.8 |
| 20260505024517 | 73 | 158 | 5.0 | 10.0 | 0.00 | 0.00 | 0.00 | 75 | 1003.9 |
| 20260505023517 | 73 | 180 | 5.0 | 9.0 | 0.00 | 0.00 | 0.00 | 75 | 1003.9 |
| 20260505022517 | 74 | 158 | 5.0 | 9.0 | 0.00 | 0.00 | 0.00 | 74 | 1003.8 |
| 20260505021517 | 74 | 158 | 6.0 | 10.0 | 0.00 | 0.00 | 0.00 | 73 | 1003.8 |
| 20260505020517 | 74 | 158 | 6.0 | 11.0 | 0.00 | 0.00 | 0.00 | 73 | 1003.8 |
| 20260505015517 | 75 | 158 | 6.0 | 10.0 | 0.00 | 0.00 | 0.00 | 72 | 1003.9 |
| 20260505014517 | 75 | 180 | 6.0 | 11.0 | 0.00 | 0.00 | 0.00 | 71 | 1003.8 |
| 20260505013537 | 75 | 180 | 6.0 | 15.0 | 0.00 | 0.00 | 0.00 | 71 | 1003.7 |
| 20260505012517 | 76 | 180 | 9.0 | 13.0 | 0.00 | 0.00 | 0.00 | 70 | 1003.7 |
| 20260505011517 | 76 | 180 | 7.0 | 12.0 | 0.00 | 0.00 | 0.00 | 70 | 1003.7 |
| 20260505010536 | 76 | 180 | 7.0 | 13.0 | 0.00 | 0.00 | 0.00 | 70 | 1003.8 |
| 20260505005516 | 76 | 180 | 7.0 | 12.0 | 0.00 | 0.00 | 0.00 | 69 | 1003.8 |
| 20260505004556 | 77 | 180 | 8.0 | 12.0 | 0.00 | 0.00 | 0.00 | 68 | 1003.8 |
| 20260505003516 | 77 | 180 | 8.0 | 16.0 | 0.00 | 0.00 | 0.00 | 68 | 1003.9 |
| 20260505002557 | 77 | 180 | 7.0 | 12.0 | 0.00 | 0.00 | 0.00 | 67 | 1003.9 |
| 20260505001516 | 78 | 180 | 9.0 | 19.0 | 0.00 | 0.00 | 0.00 | 66 | 1003.8 |
| 20260505000516 | 78 | 180 | 9.0 | 15.0 | 0.00 | 0.00 | 0.00 | 66 | 1004.0 |
| 20260504235516 | 78 | 180 | 8.0 | 21.0 | 0.00 | 0.00 | 0.00 | 66 | 1004.1 |
| 20260504234516 | 79 | 180 | 10.0 | 17.0 | 0.00 | 0.00 | 0.00 | 65 | 1004.0 |
| 20260504233516 | 79 | 180 | 12.0 | 22.0 | 0.00 | 0.00 | 0.00 | 64 | 1004.0 |
| 20260504232516 | 79 | 180 | 9.0 | 15.0 | 0.00 | 0.00 | 0.00 | 64 | 1004.1 |
| 20260504231536 | 79 | 180 | 11.0 | 22.0 | 0.00 | 0.00 | 0.00 | 64 | 1004.1 |
| 20260504230516 | 80 | 180 | 9.0 | 13.0 | 0.00 | 0.00 | 0.00 | 64 | 1004.2 |
| 20260504225516 | 80 | 180 | 10.0 | 18.0 | 0.00 | 0.00 | 0.00 | 63 | 1004.3 |
| 20260504224516 | 81 | 180 | 9.0 | 15.0 | 0.00 | 0.00 | 0.00 | 62 | 1004.5 |
| 20260504223516 | 81 | 180 | 12.0 | 18.0 | 0.00 | 0.00 | 0.00 | 62 | 1004.5 |
| 20260504222536 | 81 | 180 | 11.0 | 20.0 | 0.00 | 0.00 | 0.00 | 61 | 1004.5 |
| 20260504221516 | 81 | 180 | 10.0 | 17.0 | 0.00 | 0.00 | 0.00 | 63 | 1004.7 |
| 20260504220516 | 81 | 180 | 11.0 | 23.0 | 0.00 | 0.00 | 0.00 | 61 | 1004.7 |
| 20260504215516 | 81 | 180 | 10.0 | 19.0 | 0.00 | 0.00 | 0.00 | 61 | 1004.8 |
| 20260504214516 | 81 | 180 | 10.0 | 19.0 | 0.00 | 0.00 | 0.00 | 61 | 1004.8 |
| 20260504213536 | 81 | 180 | 10.0 | 17.0 | 0.00 | 0.00 | 0.00 | 61 | 1005.0 |
| 20260504212556 | 81 | 180 | 9.0 | 14.0 | 0.00 | 0.00 | 0.00 | 62 | 1005.3 |
| 20260504211516 | 81 | 180 | 10.0 | 18.0 | 0.00 | 0.00 | 0.00 | 62 | 1005.6 |
| 20260504210516 | 81 | 203 | 9.0 | 16.0 | 0.00 | 0.00 | 0.00 | 62 | 1005.6 |
| 20260504205556 | 81 | 203 | 10.0 | 20.0 | 0.00 | 0.00 | 0.00 | 61 | 1005.9 |
| 20260504204516 | 81 | 180 | 10.0 | 16.0 | 0.00 | 0.00 | 0.00 | 62 | 1005.9 |
| 20260504203515 | 80 | 180 | 11.0 | 18.0 | 0.00 | 0.00 | 0.00 | 63 | 1006.1 |
| 20260504202516 | 80 | 180 | 9.0 | 16.0 | 0.00 | 0.00 | 0.00 | 63 | 1006.4 |
| 20260504201516 | 80 | 180 | 11.0 | 17.0 | 0.00 | 0.00 | 0.00 | 62 | 1006.6 |
| 20260504200515 | 80 | 180 | 9.0 | 16.0 | 0.00 | 0.00 | 0.00 | 62 | 1006.6 |
| 20260504195515 | 80 | 180 | 10.0 | 16.0 | 0.00 | 0.00 | 0.00 | 61 | 1006.8 |
| 20260504194516 | 80 | 158 | 9.0 | 17.0 | 0.00 | 0.00 | 0.00 | 62 | 1007.4 |
| 20260504193515 | 80 | 180 | 8.0 | 19.0 | 0.00 | 0.00 | 0.00 | 63 | 1007.4 |
| 20260504192515 | 79 | 180 | 11.0 | 20.0 | 0.00 | 0.00 | 0.00 | 62 | 1007.5 |
| 20260504191535 | 80 | 180 | 8.0 | 13.0 | 0.00 | 0.00 | 0.00 | 63 | 1007.8 |
| 20260504190515 | 79 | 203 | 10.0 | 19.0 | 0.00 | 0.00 | 0.00 | 64 | 1007.7 |
| 20260504185515 | 78 | 180 | 9.0 | 14.0 | 0.00 | 0.00 | 0.00 | 64 | 1008.0 |
| 20260504184515 | 77 | 180 | 11.0 | 21.0 | 0.00 | 0.00 | 0.00 | 64 | 1008.2 |
| 20260504183535 | 78 | 180 | 9.0 | 19.0 | 0.00 | 0.00 | 0.00 | 64 | 1008.3 |
| 20260504182517 | 77 | 180 | 10.0 | 18.0 | 0.00 | 0.00 | 0.00 | 64 | 1008.5 |
| 20260504181517 | 78 | 180 | 8.0 | 19.0 | 0.00 | 0.00 | 0.00 | 63 | 1008.7 |
| 20260504180517 | 77 | 203 | 10.0 | 18.0 | 0.00 | 0.00 | 0.00 | 64 | 1008.9 |
| 20260504175517 | 77 | 180 | 8.0 | 13.0 | 0.00 | 0.00 | 0.00 | 64 | 1009.1 |
| 20260504174517 | 77 | 203 | 6.0 | 12.0 | 0.00 | 0.00 | 0.00 | 63 | 1009.2 |
| 20260504173517 | 76 | 203 | 11.0 | 21.0 | 0.00 | 0.00 | 0.00 | 63 | 1009.0 |
| 20260504172517 | 76 | 180 | 8.0 | 17.0 | 0.00 | 0.00 | 0.00 | 65 | 1009.2 |
| 20260504171517 | 75 | 180 | 9.0 | 16.0 | 0.00 | 0.00 | 0.00 | 66 | 1009.5 |
| 20260504170517 | 74 | 180 | 10.0 | 20.0 | 0.00 | 0.00 | 0.00 | 66 | 1009.6 |
| 20260504150517 | 69 | 203 | 8.0 | 15.0 | 0.00 | 0.00 | 0.00 | 72 | 1010.7 |
| 20260504140516 | 66 | 180 | 11.0 | 16.0 | 0.00 | 0.00 | 0.00 | 74 | 1010.9 |
| 20260504130516 | 62 | 180 | 7.0 | 11.0 | 0.00 | 0.00 | 0.00 | 77 | 1011.1 |
| 20260504110516 | 60 | 180 | 4.0 | 7.0 | 0.00 | 0.00 | 0.00 | 74 | 1011.1 |